TimePDT,TemperatureF,Dew PointF,Humidity,Sea Level PressureIn,VisibilityMPH,Wind Direction,Wind SpeedMPH,Gust SpeedMPH,PrecipitationIn,Events,Conditions,WindDirDegrees,DateUTC
12:56 AM,72.0,34.0,25,29.93,10.0,WSW,4.6,-,N/A,,Clear,250,2012-09-20 07:56:00
1:56 AM,69.1,34.0,27,29.94,10.0,South,5.8,-,N/A,,Clear,170,2012-09-20 08:56:00
2:56 AM,73.9,36.0,25,29.93,10.0,SSW,10.4,-,N/A,,Clear,200,2012-09-20 09:56:00
3:56 AM,70.0,36.0,29,29.93,10.0,Calm,Calm,-,N/A,,Clear,0,2012-09-20 10:56:00
4:56 AM,66.0,33.1,29,29.93,10.0,Calm,Calm,-,N/A,,Clear,0,2012-09-20 11:56:00
5:56 AM,66.0,36.0,33,29.94,10.0,South,8.1,-,N/A,,Clear,190,2012-09-20 12:56:00
6:56 AM,62.1,35.1,37,29.97,10.0,West,3.5,-,N/A,,Partly Cloudy,260,2012-09-20 13:56:00
7:56 AM,71.1,35.1,27,29.97,10.0,Calm,Calm,-,N/A,,Mostly Cloudy,0,2012-09-20 14:56:00
8:56 AM,77.0,35.1,22,29.98,10.0,Calm,Calm,-,N/A,,Mostly Cloudy,0,2012-09-20 15:56:00
9:56 AM,81.0,36.0,20,29.99,10.0,Calm,Calm,-,N/A,,Mostly Cloudy,0,2012-09-20 16:56:00
10:56 AM,88.0,36.0,16,29.98,10.0,Calm,Calm,-,N/A,,Mostly Cloudy,0,2012-09-20 17:56:00
11:56 AM,91.9,35.1,13,29.96,10.0,Calm,Calm,-,N/A,,Scattered Clouds,0,2012-09-20 18:56:00
12:56 PM,95.0,35.1,12,29.94,10.0,Calm,Calm,-,N/A,,Scattered Clouds,0,2012-09-20 19:56:00
1:56 PM,98.1,35.1,11,29.91,10.0,ESE,10.4,16.1,N/A,,Partly Cloudy,120,2012-09-20 20:56:00
2:56 PM,99.0,34.0,10,29.89,10.0,NNE,9.2,-,N/A,,Partly Cloudy,30,2012-09-20 21:56:00
3:56 PM,98.1,35.1,11,29.88,10.0,SSE,3.5,-,N/A,,Partly Cloudy,150,2012-09-20 22:56:00
4:56 PM,97.0,34.0,11,29.86,10.0,Variable,3.5,-,N/A,,Clear,0,2012-09-20 23:56:00
5:56 PM,97.0,34.0,11,29.86,10.0,Calm,Calm,-,N/A,,Clear,0,2012-09-21 00:56:00
6:56 PM,91.9,34.0,13,29.88,10.0,ENE,3.5,-,N/A,,Partly Cloudy,60,2012-09-21 01:56:00
7:56 PM,87.1,33.1,15,29.88,10.0,SSW,8.1,-,N/A,,Clear,200,2012-09-21 02:56:00
8:56 PM,82.9,32.0,16,29.88,10.0,SSW,8.1,-,N/A,,Clear,210,2012-09-21 03:56:00
9:56 PM,78.1,32.0,19,29.89,10.0,Variable,4.6,-,N/A,,Clear,0,2012-09-21 04:56:00
10:56 PM,80.1,34.0,19,29.88,10.0,SSW,6.9,-,N/A,,Clear,210,2012-09-21 05:56:00
11:56 PM,75.9,33.1,21,29.89,10.0,South,8.1,-,N/A,,Clear,190,2012-09-21 06:56:00